To NAV CANADA Home Page Login to a new session Search on AWWS site Feedback and Comments Disclaimer Vers la page française équivalente Tips FAQ What's new on the site To the Forecasts and Observations / NOTAM section To "File a Flight Plan" website Publications and other links Update of the User's profile FIC Telephone Numbers My Weather Data Folder Route Weather Data Regional Weather Data Local Weather Data To the Forecasts and Observations / NOTAM section
Request Generated 04/27/2015 at 18:33:28 UTC . Weather information available at that time is displayed.

METAR/TAF

BERENS RIVER/MB    

METAR CYBV 271800Z 29008KT 15SM BKN015 OVC040 03/00 A3025 RMK SC6SC2
SLP252=
METAR CYBV 271700Z 30007KT 15SM BKN015 OVC040 04/01 A3024 RMK SC6SC2
SLP250=
METAR CYBV 271600Z 29010KT 15SM BKN020 BKN050 OVC080 03/00 A3023 RMK
SC5SC2AS1 SLP248=

CYBV - No TAF is issued for this station

Your time UTC time
Weather data provided by Environment Canada and NAV CANADA